Location: Kalberh�ni
(46.4610°N, 7.2453°E)
Time: 01:26:08
(UTC+00:00)

Nimbus 7 Rocket - Pass Details

Date: 20 June 2021
Orbit: 923 x 964 km, 99.4° (Epoch: 25 July)

Event Time Altitude Azimuth Distance (km) Brightness Sun altitude
Rises 23:18:25 0° 15° (NNE) 3,648 8.8 -20.0°
Reaches altitude 10° 23:20:52 10° 15° (NNE) 2,702 7.9 -20.0°
Maximum altitude 23:26:57 89° 100° (E) 970 4.4 -20.1°
Enters shadow 23:29:46 34° 196° (SSW) 1,520 5.0 -20.1°
